�������l�o���
Date,Time,MP-1(��Sv/h),MP-2(��Sv/h),MP-3(��Sv/h),MP-4(��Sv/h),MP-5(��Sv/h),MP-6(��Sv/h),MP-7(��Sv/h),MP-8(��Sv/h),����,����(m/s),���J
2019/03/02,00:00,0.766,1.119,0.778,1.450,1.040,0.440,0.781,0.740,���k��,4.0,��
2019/03/02,00:10,0.764,1.122,0.780,1.448,1.042,0.440,0.781,0.743,���k��,3.7,��
2019/03/02,00:20,0.764,1.119,0.780,1.447,1.041,0.438,0.783,0.740,���k��,3.6,��
2019/03/02,00:30,0.766,1.121,0.780,1.444,1.042,0.438,0.780,0.741,���k��,3.8,��
2019/03/02,00:40,0.765,1.119,0.780,1.446,1.040,0.439,0.781,0.741,���k��,3.4,��
2019/03/02,00:50,0.763,1.120,0.777,1.447,1.041,0.439,0.782,0.741,���k��,3.8,��
2019/03/02,01:00,0.764,1.118,0.779,1.449,1.042,0.439,0.783,0.741,�k��,3.3,��
2019/03/02,01:10,0.764,1.119,0.780,1.447,1.040,0.438,0.782,0.740,�k��,2.8,��
2019/03/02,01:20,0.763,1.118,0.781,1.446,1.039,0.438,0.783,0.741,�k��,2.3,��
2019/03/02,01:30,0.765,1.120,0.780,1.448,1.041,0.439,0.780,0.741,�k��,3.2,��
2019/03/02,01:40,0.764,1.120,0.779,1.447,1.042,0.438,0.782,0.739,�k��,1.9,��
2019/03/02,01:50,0.765,1.119,0.779,1.444,1.042,0.439,0.781,0.740,�k��,1.7,��
2019/03/02,02:00,0.764,1.120,0.778,1.449,1.040,0.439,0.782,0.740,�k��,2.0,��
2019/03/02,02:10,0.764,1.119,0.779,1.447,1.041,0.439,0.782,0.742,�k��,1.2,��
2019/03/02,02:20,0.764,1.119,0.777,1.447,1.043,0.438,0.780,0.741,�k�k��,0.6,��
2019/03/02,02:30,0.764,1.120,0.779,1.447,1.040,0.439,0.779,0.739,-,CALM,��
2019/03/02,02:40,0.765,1.117,0.779,1.446,1.041,0.438,0.780,0.739,��,1.2,��
2019/03/02,02:50,0.766,1.117,0.780,1.445,1.042,0.439,0.781,0.741,��,0.6,��
2019/03/02,03:00,0.765,1.119,0.777,1.447,1.042,0.438,0.781,0.742,�k,2.3,��
2019/03/02,03:10,0.762,1.118,0.781,1.447,1.040,0.437,0.781,0.742,�k�k��,3.4,��
2019/03/02,03:20,0.766,1.119,0.779,1.447,1.043,0.440,0.780,0.740,�k�k��,4.5,��
2019/03/02,03:30,0.764,1.121,0.779,1.447,1.040,0.438,0.780,0.741,�k�k��,6.0,��
2019/03/02,03:40,0.765,1.118,0.780,1.446,1.042,0.438,0.779,0.740,�k�k��,5.2,��
2019/03/02,03:50,0.764,1.118,0.778,1.445,1.041,0.439,0.779,0.739,�k�k��,5.3,��
2019/03/02,04:00,0.764,1.120,0.778,1.449,1.041,0.438,0.779,0.742,�k��,4.9,��
2019/03/02,04:10,0.762,1.118,0.780,1.445,1.043,0.439,0.780,0.741,�k��,5.3,��
2019/03/02,04:20,0.765,1.117,0.779,1.446,1.039,0.438,0.780,0.740,�k��,4.7,��
2019/03/02,04:30,0.763,1.119,0.778,1.448,1.041,0.439,0.779,0.739,�k��,4.4,��
2019/03/02,04:40,0.763,1.117,0.778,1.445,1.042,0.440,0.782,0.741,���k��,4.1,��
2019/03/02,04:50,0.765,1.118,0.779,1.447,1.041,0.439,0.780,0.741,���k��,4.1,��
2019/03/02,05:00,0.765,1.120,0.776,1.446,1.041,0.439,0.782,0.740,���k��,4.9,��
2019/03/02,05:10,0.763,1.118,0.777,1.447,1.038,0.439,0.780,0.739,�k��,6.1,��
2019/03/02,05:20,0.765,1.120,0.778,1.447,1.041,0.438,0.779,0.742,�k��,6.3,��
2019/03/02,05:30,0.763,1.118,0.776,1.449,1.039,0.439,0.779,0.739,�k��,7.5,��
2019/03/02,05:40,0.763,1.119,0.779,1.447,1.039,0.439,0.778,0.740,�k��,7.2,��
2019/03/02,05:50,0.763,1.116,0.777,1.448,1.040,0.437,0.781,0.740,�k��,7.9,��
2019/03/02,06:00,0.763,1.118,0.778,1.447,1.039,0.439,0.781,0.741,�k��,6.9,��
2019/03/02,06:10,0.763,1.118,0.779,1.447,1.041,0.438,0.780,0.741,�k��,6.2,��
2019/03/02,06:20,0.763,1.115,0.779,1.447,1.041,0.438,0.780,0.741,�k��,6.7,��
2019/03/02,06:30,0.762,1.119,0.778,1.447,1.041,0.438,0.780,0.739,���k��,5.5,��
2019/03/02,06:40,0.762,1.117,0.777,1.448,1.040,0.438,0.779,0.739,�k��,6.4,��
2019/03/02,06:50,0.763,1.115,0.779,1.448,1.038,0.439,0.779,0.739,���k��,5.7,��
2019/03/02,07:00,0.761,1.119,0.779,1.449,1.040,0.437,0.778,0.739,���k��,5.9,��
2019/03/02,07:10,0.763,1.118,0.779,1.447,1.042,0.438,0.782,0.740,���k��,6.0,��
2019/03/02,07:20,0.762,1.117,0.777,1.450,1.037,0.438,0.781,0.742,���k��,5.5,��
2019/03/02,07:30,0.762,1.119,0.777,1.448,1.041,0.438,0.781,0.741,���k��,3.5,��
2019/03/02,07:40,0.763,1.118,0.779,1.447,1.039,0.438,0.782,0.741,���k��,2.9,��
2019/03/02,07:50,0.764,1.119,0.778,1.450,1.039,0.438,0.783,0.741,�k��,2.9,��
2019/03/02,08:00,0.763,1.120,0.778,1.447,1.040,0.438,0.780,0.741,���k��,1.5,��
2019/03/02,08:10,0.765,1.120,0.779,1.449,1.040,0.439,0.781,0.741,���k��,1.7,��
2019/03/02,08:20,0.764,1.118,0.780,1.450,1.039,0.438,0.783,0.742,���k��,2.2,��
2019/03/02,08:30,0.767,1.123,0.778,1.448,1.042,0.439,0.781,0.740,��,4.2,��
2019/03/02,08:40,0.766,1.120,0.779,1.446,1.042,0.438,0.783,0.741,���k��,5.8,��
2019/03/02,08:50,0.765,1.121,0.778,1.450,1.042,0.438,0.782,0.742,���k��,8.5,��
2019/03/02,09:00,0.767,1.122,0.779,1.450,1.042,0.438,0.782,0.742,�k��,8.8,��
2019/03/02,09:10,0.767,1.122,0.780,1.449,1.043,0.440,0.781,0.741,���k��,10.2,��
2019/03/02,09:20,0.767,1.122,0.778,1.449,1.042,0.439,0.785,0.741,�k��,11.4,��
2019/03/02,09:30,0.766,1.121,0.779,1.448,1.044,0.439,0.782,0.739,�k��,9.0,��
2019/03/02,09:40,0.766,1.121,0.780,1.452,1.044,0.440,0.782,0.741,�k��,6.9,��
2019/03/02,09:50,0.768,1.121,0.781,1.450,1.043,0.440,0.781,0.743,�k��,9.6,��
2019/03/02,10:00,0.768,1.122,0.782,1.451,1.045,0.440,0.782,0.743,�k��,8.7,��
2019/03/02,10:10,0.767,1.125,0.782,1.451,1.047,0.441,0.784,0.743,�k��,9.5,��
2019/03/02,10:20,0.768,1.123,0.781,1.452,1.046,0.440,0.783,0.743,�k�k��,9.7,��
2019/03/02,10:30,0.766,1.122,0.784,1.453,1.048,0.439,0.782,0.742,�k��,8.1,��
2019/03/02,10:40,0.768,1.123,0.783,1.454,1.048,0.441,0.784,0.743,�k��,7.4,��
2019/03/02,10:50,0.769,1.124,0.779,1.453,1.047,0.440,0.782,0.740,���k��,5.7,��
2019/03/02,11:00,0.768,1.125,0.783,1.456,1.047,0.441,0.783,0.741,�k��,6.1,��
2019/03/02,11:10,0.770,1.124,0.780,1.457,1.048,0.441,0.782,0.741,�k��,9.6,��
2019/03/02,11:20,0.770,1.125,0.781,1.455,1.048,0.441,0.782,0.742,�k��,8.4,��
2019/03/02,11:30,0.770,1.127,0.783,1.455,1.048,0.440,0.783,0.739,�k��,8.7,��
2019/03/02,11:40,0.769,1.126,0.783,1.454,1.049,0.441,0.784,0.742,�k�k��,6.1,��
2019/03/02,11:50,0.769,1.127,0.783,1.459,1.050,0.440,0.782,0.744,�k��,8.4,��
2019/03/02,12:00,0.770,1.130,0.782,1.457,1.049,0.441,0.783,0.743,�k��,10.5,��
2019/03/02,12:10,0.769,1.130,0.783,1.458,1.048,0.441,0.783,0.744,�k�k��,7.4,��
2019/03/02,12:20,0.769,1.131,0.784,1.458,1.048,0.440,0.784,0.742,�k��,8.0,��
2019/03/02,12:30,0.770,1.128,0.782,1.457,1.051,0.440,0.783,0.743,�k��,7.8,��
2019/03/02,12:40,0.768,1.130,0.784,1.456,1.048,0.440,0.783,0.743,�k��,7.8,��
2019/03/02,12:50,0.770,1.129,0.784,1.461,1.048,0.442,0.785,0.744,�k��,6.8,��
2019/03/02,13:00,0.767,1.129,0.784,1.460,1.050,0.440,0.785,0.743,�k��,8.0,��
2019/03/02,13:10,0.771,1.132,0.783,1.458,1.050,0.443,0.785,0.744,�k��,6.3,��
2019/03/02,13:20,0.769,1.129,0.785,1.460,1.052,0.442,0.785,0.742,�k��,5.5,��
2019/03/02,13:30,0.771,1.132,0.785,1.463,1.049,0.442,0.784,0.742,�k��,7.8,��
2019/03/02,13:40,0.772,1.132,0.784,1.462,1.053,0.443,0.785,0.743,�k��,7.3,��
2019/03/02,13:50,0.772,1.131,0.784,1.460,1.049,0.442,0.785,0.742,�k��,7.4,��
2019/03/02,14:00,0.772,1.129,0.784,1.465,1.052,0.441,0.785,0.741,�k��,7.0,��
2019/03/02,14:10,0.770,1.131,0.786,1.463,1.052,0.443,0.784,0.741,�k��,8.4,��
2019/03/02,14:20,0.770,1.130,0.785,1.459,1.052,0.442,0.784,0.740,�k��,7.7,��
2019/03/02,14:30,0.771,1.134,0.787,1.463,1.052,0.442,0.786,0.742,�k��,7.0,��
2019/03/02,14:40,0.769,1.131,0.787,1.463,1.051,0.443,0.785,0.741,���k��,5.9,��
2019/03/02,14:50,0.771,1.130,0.785,1.462,1.053,0.440,0.784,0.742,�k��,4.5,��
2019/03/02,15:00,0.771,1.133,0.785,1.461,1.055,0.441,0.784,0.743,�k��,4.8,��
2019/03/02,15:10,0.771,1.132,0.788,1.460,1.051,0.442,0.784,0.741,���k��,6.9,��
2019/03/02,15:20,0.771,1.134,0.787,1.463,1.053,0.441,0.785,0.742,��,6.8,��
2019/03/02,15:30,0.771,1.132,0.789,1.462,1.052,0.442,0.785,0.742,�k��,5.6,��
2019/03/02,15:40,0.771,1.133,0.787,1.463,1.053,0.442,0.785,0.741,�k��,6.6,��
2019/03/02,15:50,0.771,1.133,0.786,1.463,1.054,0.441,0.785,0.742,���k��,5.7,��
2019/03/02,16:00,0.771,1.135,0.784,1.461,1.052,0.441,0.784,0.745,�k��,5.5,��
2019/03/02,16:10,0.772,1.135,0.785,1.464,1.052,0.442,0.783,0.745,�k��,6.2,��
2019/03/02,16:20,0.773,1.138,0.785,1.464,1.052,0.440,0.786,0.745,�k��,8.2,��
2019/03/02,16:30,0.773,1.137,0.787,1.464,1.054,0.441,0.784,0.743,�k��,7.5,��
2019/03/02,16:40,0.772,1.136,0.786,1.459,1.053,0.442,0.784,0.744,�k��,7.1,��
2019/03/02,16:50,0.771,1.135,0.787,1.463,1.056,0.442,0.782,0.744,�k��,6.0,��
2019/03/02,17:00,0.773,1.137,0.785,1.462,1.054,0.441,0.786,0.746,�k��,6.3,��
2019/03/02,17:10,0.774,1.137,0.787,1.464,1.055,0.442,0.784,0.745,�k��,6.0,��
2019/03/02,17:20,0.776,1.137,0.787,1.463,1.057,0.441,0.785,0.745,�k��,5.2,��
2019/03/02,17:30,0.772,1.136,0.787,1.463,1.053,0.442,0.785,0.745,�k�k��,5.6,��
2019/03/02,17:40,0.772,1.136,0.786,1.465,1.055,0.443,0.784,0.743,�k��,6.4,��
2019/03/02,17:50,0.773,1.135,0.787,1.461,1.055,0.440,0.784,0.743,�k�k��,5.2,��
2019/03/02,18:00,0.774,1.136,0.787,1.464,1.052,0.442,0.787,0.743,�k��,5.4,��
2019/03/02,18:10,0.773,1.136,0.785,1.463,1.054,0.442,0.786,0.746,�k��,4.0,��
2019/03/02,18:20,0.771,1.136,0.787,1.463,1.049,0.441,0.785,0.744,�k��,4.1,��
2019/03/02,18:30,0.771,1.136,0.786,1.464,1.055,0.441,0.784,0.745,���k��,4.5,��
2019/03/02,18:40,0.772,1.136,0.787,1.463,1.053,0.440,0.786,0.744,���k��,3.7,��
2019/03/02,18:50,0.773,1.135,0.786,1.462,1.053,0.440,0.783,0.744,��,3.3,��
2019/03/02,19:00,0.772,1.134,0.786,1.463,1.052,0.440,0.783,0.743,��,3.8,��
2019/03/02,19:10,0.772,1.134,0.785,1.463,1.054,0.440,0.783,0.743,��,3.8,��
2019/03/02,19:20,0.772,1.136,0.784,1.463,1.055,0.441,0.784,0.743,��,3.9,��
2019/03/02,19:30,0.772,1.134,0.786,1.461,1.053,0.440,0.784,0.743,��,3.5,��
2019/03/02,19:40,0.771,1.134,0.786,1.464,1.053,0.441,0.785,0.743,���쐼,4.2,��
2019/03/02,19:50,0.773,1.136,0.786,1.465,1.052,0.440,0.783,0.743,��,4.2,��
2019/03/02,20:00,0.772,1.135,0.785,1.464,1.055,0.441,0.783,0.743,��,4.1,��
2019/03/02,20:10,0.772,1.135,0.785,1.461,1.053,0.440,0.785,0.744,��,6.3,��
2019/03/02,20:20,0.771,1.135,0.785,1.461,1.053,0.440,0.784,0.743,��,6.8,��
2019/03/02,20:30,0.770,1.133,0.787,1.462,1.052,0.440,0.785,0.742,���k��,6.9,��
2019/03/02,20:40,0.772,1.133,0.787,1.463,1.053,0.441,0.782,0.742,���k��,5.6,��
2019/03/02,20:50,0.772,1.134,0.784,1.462,1.051,0.441,0.783,0.743,���k��,5.4,��
2019/03/02,21:00,0.772,1.135,0.786,1.464,1.054,0.439,0.783,0.743,���k��,5.0,��
2019/03/02,21:10,0.771,1.134,0.786,1.464,1.055,0.440,0.783,0.743,��,5.6,��
2019/03/02,21:20,0.771,1.136,0.787,1.465,1.053,0.440,0.785,0.743,��,5.8,��
2019/03/02,21:30,0.772,1.130,0.787,1.464,1.052,0.441,0.784,0.743,���k��,6.0,��
2019/03/02,21:40,0.771,1.134,0.785,1.462,1.052,0.440,0.786,0.743,���k��,5.7,��
2019/03/02,21:50,0.770,1.134,0.786,1.463,1.053,0.439,0.784,0.742,���k��,6.1,��
2019/03/02,22:00,0.770,1.132,0.785,1.463,1.051,0.440,0.783,0.742,���k��,6.6,��
2019/03/02,22:10,0.772,1.134,0.785,1.463,1.051,0.442,0.783,0.743,���k��,6.7,��
2019/03/02,22:20,0.770,1.134,0.787,1.463,1.052,0.441,0.784,0.741,���k��,7.2,��
2019/03/02,22:30,0.769,1.132,0.787,1.465,1.051,0.440,0.784,0.745,���k��,7.3,��
2019/03/02,22:40,0.768,1.132,0.784,1.462,1.054,0.440,0.784,0.743,���k��,7.9,��
2019/03/02,22:50,0.771,1.136,0.783,1.464,1.054,0.439,0.784,0.743,��,7.4,��
2019/03/02,23:00,0.771,1.135,0.787,1.463,1.052,0.440,0.784,0.743,��,7.3,��
2019/03/02,23:10,0.771,1.132,0.786,1.463,1.051,0.438,0.785,0.743,��,8.3,��
2019/03/02,23:20,0.771,1.132,0.787,1.461,1.053,0.440,0.784,0.743,��,7.4,��
2019/03/02,23:30,0.772,1.132,0.785,1.462,1.053,0.440,0.786,0.741,��,7.2,��
2019/03/02,23:40,0.772,1.130,0.785,1.465,1.053,0.440,0.783,0.742,��,6.5,��
2019/03/02,23:50,0.772,1.134,0.784,1.464,1.055,0.443,0.782,0.742,��,6.4,��
